Location: Newark
(35.2672°N, 80.7344°W)
Time: 14:36:38
(UTC+00:00)

Transit 2A Rocket - Pass Details

Date: 04 February 2020
Orbit: 591 x 912 km, 66.7° (Epoch: 29 February)

Event Time Altitude Azimuth Distance (km) Brightness Sun altitude
Rises 17:32:13 0° 329° (NNW) 3,112 7.7 38.5°
Reaches altitude 10° 17:34:29 10° 327° (NNW) 2,238 7.1 38.5°
Maximum altitude 17:39:34 67° 246° (WSW) 847 6.1 38.5°
Drops below altitude 10° 17:45:08 10° 164° (SSE) 2,437 8.7 38.5°
Sets 17:47:42 0° 162° (SSE) 3,411 9.2 38.4°
